Time,TemperatureF,DewpointF,PressureIn,WindDirection,WindDirectionDegrees,WindSpeedMPH,WindSpeedGustMPH,Humidity,HourlyPrecipIn,Conditions,Clouds,dailyrainin,SoftwareType,DateUTC
2013-05-26 00:01:00,74.0,67.4,30.05,East,91,8.0,9.0,80,0.00,,---,0.00,VWS V14.01,2013-05-26 05:01:00,
2013-05-26 00:06:00,74.0,67.8,30.05,SSE,150,4.0,9.0,81,0.00,,---,0.00,VWS V14.01,2013-05-26 05:06:00,
2013-05-26 00:11:00,74.0,67.8,30.05,SSE,162,7.0,9.0,81,0.00,,---,0.00,VWS V14.01,2013-05-26 05:11:00,
2013-05-26 00:16:00,73.9,67.3,30.06,SE,124,6.0,9.0,80,0.00,,---,0.00,VWS V14.01,2013-05-26 05:16:00,
2013-05-26 00:21:00,73.8,67.6,30.06,SE,143,4.0,9.0,81,0.00,,---,0.00,VWS V14.01,2013-05-26 05:21:00,
2013-05-26 00:26:00,73.7,67.5,30.06,ESE,120,2.0,9.0,81,0.00,,---,0.00,VWS V14.01,2013-05-26 05:26:00,
2013-05-26 00:31:00,73.6,67.4,30.06,SSE,163,2.0,2.0,81,0.00,,---,0.00,VWS V14.01,2013-05-26 05:31:00,
2013-05-26 00:36:00,73.5,67.7,30.06,SSW,196,5.0,5.0,82,0.00,,---,0.00,VWS V14.01,2013-05-26 05:36:00,
2013-05-26 00:41:00,73.3,67.1,30.06,SSE,160,4.0,7.0,81,0.00,,---,0.00,VWS V14.01,2013-05-26 05:41:00,
2013-05-26 00:46:00,73.3,67.5,30.06,SSE,158,3.0,7.0,82,0.00,,---,0.00,VWS V14.01,2013-05-26 05:46:00,
2013-05-26 00:51:00,73.2,67.4,30.06,SE,127,2.0,7.0,82,0.00,,---,0.00,VWS V14.01,2013-05-26 05:51:00,
2013-05-26 00:56:00,73.1,67.6,30.06,SE,129,2.0,7.0,83,0.00,,---,0.00,VWS V14.01,2013-05-26 05:56:00,
2013-05-26 01:01:00,73.1,67.6,30.06,SE,137,3.0,3.0,83,0.00,,---,0.00,VWS V14.01,2013-05-26 06:01:00,
2013-05-26 01:06:00,73.1,67.6,30.06,ESE,114,4.0,6.0,83,0.00,,---,0.00,VWS V14.01,2013-05-26 06:06:00,
2013-05-26 01:11:00,73.1,67.6,30.06,ESE,113,5.0,7.0,83,0.00,,---,0.00,VWS V14.01,2013-05-26 06:11:00,
2013-05-26 01:16:00,73.1,67.6,30.06,SE,134,3.0,7.0,83,0.00,,---,0.00,VWS V14.01,2013-05-26 06:16:00,
2013-05-26 01:21:00,73.1,67.6,30.05,ESE,108,7.0,7.0,83,0.00,,---,0.00,VWS V14.01,2013-05-26 06:21:00,
2013-05-26 01:26:00,73.0,67.2,30.05,SSE,150,2.0,7.0,82,0.00,,---,0.00,VWS V14.01,2013-05-26 06:26:00,
2013-05-26 01:31:00,73.0,67.5,30.05,SE,146,3.0,5.0,83,0.00,,---,0.00,VWS V14.01,2013-05-26 06:31:00,
2013-05-26 01:36:00,73.0,67.5,30.05,SE,140,4.0,6.0,83,0.00,,---,0.00,VWS V14.01,2013-05-26 06:36:00,
2013-05-26 01:41:00,73.0,67.5,30.05,ESE,105,3.0,6.0,83,0.00,,---,0.00,VWS V14.01,2013-05-26 06:41:00,
2013-05-26 01:46:00,73.0,67.5,30.05,SSE,160,3.0,6.0,83,0.00,,---,0.00,VWS V14.01,2013-05-26 06:46:00,
2013-05-26 01:51:00,73.0,67.5,30.05,East,91,7.0,7.0,83,0.00,,---,0.00,VWS V14.01,2013-05-26 06:51:00,
2013-05-26 01:56:00,72.9,67.4,30.05,SE,142,3.0,7.0,83,0.00,,---,0.00,VWS V14.01,2013-05-26 06:56:00,
2013-05-26 02:01:00,72.8,67.3,30.04,ESE,110,3.0,3.0,83,0.00,,---,0.00,VWS V14.01,2013-05-26 07:01:00,
2013-05-26 02:06:00,72.8,67.7,30.04,ESE,115,2.0,4.0,84,0.00,,---,0.00,VWS V14.01,2013-05-26 07:06:00,
2013-05-26 02:11:00,72.7,67.6,30.04,SE,132,2.0,5.0,84,0.00,,---,0.00,VWS V14.01,2013-05-26 07:11:00,
2013-05-26 02:16:00,72.6,67.5,30.04,SSE,154,3.0,5.0,84,0.00,,---,0.00,VWS V14.01,2013-05-26 07:16:00,
2013-05-26 02:21:00,72.5,67.4,30.04,SSE,148,4.0,5.0,84,0.00,,---,0.00,VWS V14.01,2013-05-26 07:21:00,
2013-05-26 02:26:00,72.4,67.3,30.04,SSE,151,1.0,5.0,84,0.00,,---,0.00,VWS V14.01,2013-05-26 07:26:00,
2013-05-26 02:31:00,72.4,67.6,30.04,SE,133,1.0,2.0,85,0.00,,---,0.00,VWS V14.01,2013-05-26 07:31:00,
2013-05-26 02:36:00,72.3,67.5,30.04,SE,132,2.0,5.0,85,0.00,,---,0.00,VWS V14.01,2013-05-26 07:36:00,
2013-05-26 02:41:00,72.4,67.6,30.03,SE,143,3.0,5.0,85,0.00,,---,0.00,VWS V14.01,2013-05-26 07:41:00,
2013-05-26 02:46:00,72.4,67.6,30.03,East,100,5.0,5.0,85,0.00,,---,0.00,VWS V14.01,2013-05-26 07:46:00,
2013-05-26 02:51:00,72.5,68.1,30.03,ESE,117,2.0,6.0,86,0.00,,---,0.00,VWS V14.01,2013-05-26 07:51:00,
2013-05-26 02:56:00,72.3,67.5,30.02,ESE,111,3.0,6.0,85,0.00,,---,0.00,VWS V14.01,2013-05-26 07:56:00,
2013-05-26 03:01:00,72.3,67.5,30.02,ESE,111,4.0,5.0,85,0.00,,---,0.00,VWS V14.01,2013-05-26 08:01:00,
2013-05-26 03:06:00,72.2,67.8,30.02,ESE,103,4.0,5.0,86,0.00,,---,0.00,VWS V14.01,2013-05-26 08:06:00,
2013-05-26 03:11:00,72.1,67.7,30.02,ESE,120,2.0,5.0,86,0.00,,---,0.00,VWS V14.01,2013-05-26 08:11:00,
2013-05-26 03:16:00,72.2,68.1,30.02,ESE,108,3.0,5.0,87,0.00,,---,0.00,VWS V14.01,2013-05-26 08:16:00,
2013-05-26 03:21:00,72.2,67.8,30.03,ESE,114,1.0,5.0,86,0.00,,---,0.00,VWS V14.01,2013-05-26 08:21:00,
2013-05-26 03:26:00,72.2,67.8,30.03,ESE,118,1.0,5.0,86,0.00,,---,0.00,VWS V14.01,2013-05-26 08:26:00,
2013-05-26 03:31:00,72.2,68.1,30.03,ESE,113,2.0,2.0,87,0.00,,---,0.00,VWS V14.01,2013-05-26 08:31:00,
2013-05-26 03:36:00,72.2,68.1,30.03,ESE,103,1.0,2.0,87,0.00,,---,0.00,VWS V14.01,2013-05-26 08:36:00,
2013-05-26 03:41:00,72.1,68.0,30.04,East,98,0.0,2.0,87,0.00,,---,0.00,VWS V14.01,2013-05-26 08:41:00,
2013-05-26 03:46:00,72.0,67.9,30.04,East,98,0.0,2.0,87,0.00,,---,0.00,VWS V14.01,2013-05-26 08:46:00,
2013-05-26 03:51:00,71.8,67.7,30.04,East,98,0.0,2.0,87,0.00,,---,0.00,VWS V14.01,2013-05-26 08:51:00,
2013-05-26 03:56:00,71.7,67.6,30.04,ESE,108,0.0,2.0,87,0.00,,---,0.00,VWS V14.01,2013-05-26 08:56:00,
2013-05-26 04:01:00,71.6,67.5,30.04,East,100,0.0,1.0,87,0.00,,---,0.00,VWS V14.01,2013-05-26 09:01:00,
2013-05-26 04:06:00,71.6,67.5,30.04,ESE,117,0.0,2.0,87,0.00,,---,0.00,VWS V14.01,2013-05-26 09:06:00,
2013-05-26 04:11:00,71.6,67.9,30.04,East,94,0.0,2.0,88,0.00,,---,0.00,VWS V14.01,2013-05-26 09:11:00,
2013-05-26 04:16:00,71.5,67.8,30.04,East,82,2.0,3.0,88,0.00,,---,0.00,VWS V14.01,2013-05-26 09:16:00,
2013-05-26 04:21:00,71.5,67.8,30.04,East,96,2.0,3.0,88,0.00,,---,0.00,VWS V14.01,2013-05-26 09:21:00,
2013-05-26 04:26:00,71.4,67.7,30.04,East,99,2.0,3.0,88,0.00,,---,0.00,VWS V14.01,2013-05-26 09:26:00,
2013-05-26 04:31:00,71.2,67.8,30.04,East,89,2.0,2.0,89,0.00,,---,0.00,VWS V14.01,2013-05-26 09:31:00,
2013-05-26 04:36:00,71.2,67.8,30.04,East,91,2.0,5.0,89,0.00,,---,0.00,VWS V14.01,2013-05-26 09:36:00,
2013-05-26 04:41:00,71.2,67.8,30.04,ESE,115,4.0,5.0,89,0.00,,---,0.00,VWS V14.01,2013-05-26 09:41:00,
2013-05-26 04:46:00,71.2,68.1,30.04,ESE,106,3.0,5.0,90,0.00,,---,0.00,VWS V14.01,2013-05-26 09:46:00,
2013-05-26 04:51:00,71.2,67.8,30.04,SE,128,3.0,6.0,89,0.00,,---,0.00,VWS V14.01,2013-05-26 09:51:00,
2013-05-26 04:56:00,71.3,68.2,30.03,ESE,113,1.0,6.0,90,0.00,,---,0.00,VWS V14.01,2013-05-26 09:56:00,
2013-05-26 05:01:00,71.4,68.3,30.03,ESE,105,3.0,4.0,90,0.00,,---,0.00,VWS V14.01,2013-05-26 10:01:00,
2013-05-26 05:06:00,71.6,68.5,30.03,East,82,4.0,6.0,90,0.00,,---,0.00,VWS V14.01,2013-05-26 10:06:00,
2013-05-26 05:11:00,71.7,68.6,30.03,ESE,114,3.0,7.0,90,0.00,,---,0.00,VWS V14.01,2013-05-26 10:11:00,
2013-05-26 05:16:00,71.7,68.6,30.03,SE,132,3.0,7.0,90,0.00,,---,0.00,VWS V14.01,2013-05-26 10:16:00,
2013-05-26 05:21:00,71.8,68.7,30.03,SE,131,2.0,8.0,90,0.00,,---,0.00,VWS V14.01,2013-05-26 10:21:00,
2013-05-26 05:26:00,72.0,69.2,30.03,SSE,162,5.0,8.0,91,0.00,,---,0.00,VWS V14.01,2013-05-26 10:26:00,
2013-05-26 05:31:00,72.1,69.3,30.03,ESE,107,4.0,6.0,91,0.00,,---,0.00,VWS V14.01,2013-05-26 10:31:00,
2013-05-26 05:36:00,72.0,68.9,30.03,ESE,104,4.0,6.0,90,0.00,,---,0.00,VWS V14.01,2013-05-26 10:36:00,
2013-05-26 05:41:00,71.9,68.8,30.03,ESE,117,1.0,6.0,90,0.00,,---,0.00,VWS V14.01,2013-05-26 10:41:00,
2013-05-26 05:46:00,71.8,68.7,30.04,ESE,105,1.0,6.0,90,0.00,,---,0.00,VWS V14.01,2013-05-26 10:46:00,
2013-05-26 05:51:00,71.8,69.0,30.04,SSE,151,2.0,6.0,91,0.00,,---,0.00,VWS V14.01,2013-05-26 10:51:00,
2013-05-26 05:56:00,72.0,69.2,30.04,ESE,103,3.0,6.0,91,0.00,,---,0.00,VWS V14.01,2013-05-26 10:56:00,
2013-05-26 06:01:00,72.0,69.2,30.04,SE,132,2.0,6.0,91,0.00,,---,0.00,VWS V14.01,2013-05-26 11:01:00,
2013-05-26 06:06:00,72.1,69.3,30.04,SSE,153,3.0,5.0,91,0.00,,---,0.00,VWS V14.01,2013-05-26 11:06:00,
2013-05-26 06:11:00,72.1,69.3,30.04,SE,127,2.0,5.0,91,0.00,,---,0.00,VWS V14.01,2013-05-26 11:11:00,
2013-05-26 06:15:00,72.0,69.2,30.04,East,93,3.0,7.0,91,0.00,,---,0.00,VWS V14.01,2013-05-26 11:15:00,
2013-05-26 06:20:00,71.8,69.0,30.04,East,84,3.0,7.0,91,0.00,,---,0.00,VWS V14.01,2013-05-26 11:20:00,
2013-05-26 06:25:00,71.8,69.0,30.04,ENE,72,4.0,7.0,91,0.00,,---,0.00,VWS V14.01,2013-05-26 11:25:00,
2013-05-26 06:30:00,71.7,68.9,30.04,East,82,4.0,7.0,91,0.00,,---,0.00,VWS V14.01,2013-05-26 11:30:00,
2013-05-26 06:35:00,71.5,68.7,30.05,East,90,3.0,6.0,91,0.00,,---,0.00,VWS V14.01,2013-05-26 11:35:00,
2013-05-26 06:40:00,71.3,68.5,30.05,East,83,2.0,6.0,91,0.00,,---,0.00,VWS V14.01,2013-05-26 11:40:00,
2013-05-26 06:45:00,71.1,68.3,30.05,East,94,0.0,6.0,91,0.00,,---,0.00,VWS V14.01,2013-05-26 11:45:00,
2013-05-26 06:50:00,70.9,68.5,30.05,East,91,2.0,6.0,92,0.00,,---,0.00,VWS V14.01,2013-05-26 11:50:00,
2013-05-26 06:55:00,70.8,68.4,30.05,East,96,2.0,6.0,92,0.00,,---,0.00,VWS V14.01,2013-05-26 11:55:00,
2013-05-26 07:00:00,70.7,68.3,30.05,East,98,2.0,6.0,92,0.00,,---,0.00,VWS V14.01,2013-05-26 12:00:00,
2013-05-26 07:05:00,70.7,68.6,30.05,East,96,2.0,4.0,93,0.00,,---,0.00,VWS V14.01,2013-05-26 12:05:00,
2013-05-26 07:10:00,70.7,68.6,30.05,ESE,107,3.0,4.0,93,0.00,,---,0.00,VWS V14.01,2013-05-26 12:10:00,
2013-05-26 07:15:00,70.7,68.6,30.05,ESE,117,2.0,4.0,93,0.00,,---,0.00,VWS V14.01,2013-05-26 12:15:00,
2013-05-26 07:20:00,70.8,68.7,30.05,ESE,110,4.0,5.0,93,0.00,,---,0.00,VWS V14.01,2013-05-26 12:20:00,
2013-05-26 07:25:00,70.9,68.8,30.05,East,98,4.0,6.0,93,0.00,,---,0.00,VWS V14.01,2013-05-26 12:25:00,
2013-05-26 07:30:00,71.1,69.0,30.05,East,96,3.0,3.0,93,0.00,,---,0.00,VWS V14.01,2013-05-26 12:30:00,
2013-05-26 07:35:00,71.2,69.1,30.05,ESE,108,3.0,6.0,93,0.00,,---,0.00,VWS V14.01,2013-05-26 12:35:00,
2013-05-26 07:40:00,71.4,69.3,30.06,ESE,107,3.0,6.0,93,0.00,,---,0.00,VWS V14.01,2013-05-26 12:40:00,
2013-05-26 07:45:00,71.5,69.4,30.06,ESE,107,2.0,6.0,93,0.00,,---,0.00,VWS V14.01,2013-05-26 12:45:00,
2013-05-26 07:50:00,71.6,69.5,30.06,East,85,4.0,6.0,93,0.00,,---,0.00,VWS V14.01,2013-05-26 12:50:00,
2013-05-26 07:55:00,71.7,69.6,30.06,East,101,3.0,6.0,93,0.00,,---,0.00,VWS V14.01,2013-05-26 12:55:00,
2013-05-26 08:00:00,71.8,69.7,30.06,ESE,120,2.0,2.0,93,0.00,,---,0.00,VWS V14.01,2013-05-26 13:00:00,
2013-05-26 08:05:00,72.0,69.9,30.06,ESE,108,5.0,5.0,93,0.00,,---,0.00,VWS V14.01,2013-05-26 13:05:00,
2013-05-26 08:10:00,72.0,69.9,30.06,ESE,114,3.0,7.0,93,0.00,,---,0.00,VWS V14.01,2013-05-26 13:10:00,
2013-05-26 08:15:00,72.1,69.7,30.06,ESE,114,4.0,7.0,92,0.00,,---,0.00,VWS V14.01,2013-05-26 13:15:00,
2013-05-26 08:20:00,72.2,70.1,30.06,East,94,5.0,9.0,93,0.00,,---,0.00,VWS V14.01,2013-05-26 13:20:00,
2013-05-26 08:25:00,72.3,70.2,30.06,SE,134,5.0,9.0,93,0.00,,---,0.00,VWS V14.01,2013-05-26 13:25:00,
2013-05-26 08:30:00,72.3,69.8,30.06,SE,142,6.0,9.0,92,0.00,,---,0.00,VWS V14.01,2013-05-26 13:30:00,
2013-05-26 08:35:00,72.3,70.2,30.06,SE,127,4.0,8.0,93,0.00,,---,0.00,VWS V14.01,2013-05-26 13:35:00,
2013-05-26 08:40:00,72.4,70.3,30.06,South,181,5.0,8.0,93,0.00,,---,0.00,VWS V14.01,2013-05-26 13:40:00,
2013-05-26 08:45:00,72.4,69.9,30.06,SSE,159,5.0,8.0,92,0.00,,---,0.00,VWS V14.01,2013-05-26 13:45:00,
2013-05-26 08:50:00,72.2,69.8,30.07,SSE,157,2.0,8.0,92,0.00,,---,0.00,VWS V14.01,2013-05-26 13:50:00,
2013-05-26 08:55:00,72.3,69.8,30.07,SSE,157,3.0,8.0,92,0.00,,---,0.00,VWS V14.01,2013-05-26 13:55:00,
2013-05-26 09:00:00,72.3,69.8,30.07,SSE,162,2.0,8.0,92,0.00,,---,0.00,VWS V14.01,2013-05-26 14:00:00,
2013-05-26 09:05:00,72.3,69.8,30.07,SSE,152,2.0,4.0,92,0.00,,---,0.00,VWS V14.01,2013-05-26 14:05:00,
2013-05-26 09:10:00,72.4,70.3,30.07,SSE,160,2.0,4.0,93,0.00,,---,0.00,VWS V14.01,2013-05-26 14:10:00,
2013-05-26 09:15:00,72.4,69.9,30.07,SSE,148,2.0,7.0,92,0.00,,---,0.00,VWS V14.01,2013-05-26 14:15:00,
2013-05-26 09:20:00,72.6,70.5,30.07,SSE,167,3.0,7.0,93,0.00,,---,0.00,VWS V14.01,2013-05-26 14:20:00,
2013-05-26 09:25:00,72.7,70.6,30.07,SSW,195,4.0,8.0,93,0.00,,---,0.00,VWS V14.01,2013-05-26 14:25:00,
2013-05-26 09:30:00,73.0,70.5,30.07,SSE,153,3.0,9.0,92,0.00,,---,0.00,VWS V14.01,2013-05-26 14:30:00,
2013-05-26 09:35:00,73.0,70.2,30.07,SSE,167,3.0,9.0,91,0.00,,---,0.00,VWS V14.01,2013-05-26 14:35:00,
2013-05-26 09:40:00,72.9,69.1,30.07,SSW,193,7.0,13.0,88,0.00,,---,0.00,VWS V14.01,2013-05-26 14:40:00,
2013-05-26 09:45:00,73.0,68.2,30.07,SSE,153,7.0,13.0,85,0.00,,---,0.00,VWS V14.01,2013-05-26 14:45:00,
2013-05-26 09:50:00,73.2,68.1,30.07,SSE,159,4.0,13.0,84,0.00,,---,0.00,VWS V14.01,2013-05-26 14:50:00,
2013-05-26 09:55:00,73.3,68.5,30.07,WSW,258,1.0,13.0,85,0.01,,---,0.01,VWS V14.01,2013-05-26 14:55:00,
2013-05-26 10:00:00,73.2,68.8,30.07,SSW,195,1.0,13.0,86,0.02,,---,0.02,VWS V14.01,2013-05-26 15:00:00,
2013-05-26 10:05:00,72.9,68.8,30.07,South,172,1.0,5.0,87,0.03,,---,0.03,VWS V14.01,2013-05-26 15:05:00,
2013-05-26 10:10:00,72.7,68.9,30.07,SSE,150,1.0,5.0,88,0.04,,---,0.04,VWS V14.01,2013-05-26 15:10:00,
2013-05-26 10:15:00,72.4,68.7,30.07,SSW,198,2.0,6.0,88,0.05,,---,0.05,VWS V14.01,2013-05-26 15:15:00,
2013-05-26 10:20:00,72.2,68.8,30.07,SW,229,1.0,6.0,89,0.05,,---,0.05,VWS V14.01,2013-05-26 15:20:00,
2013-05-26 10:25:00,72.3,69.2,30.07,WSW,243,1.0,6.0,90,0.05,,---,0.05,VWS V14.01,2013-05-26 15:25:00,
2013-05-26 10:30:00,72.2,69.1,30.07,West,260,0.0,6.0,90,0.06,,---,0.06,VWS V14.01,2013-05-26 15:30:00,
2013-05-26 10:35:00,72.0,68.3,30.07,SW,218,8.0,10.0,88,0.06,,---,0.06,VWS V14.01,2013-05-26 15:35:00,
2013-05-26 10:40:00,71.8,67.7,30.08,SSW,205,3.0,12.0,87,0.06,,---,0.06,VWS V14.01,2013-05-26 15:40:00,
2013-05-26 10:45:00,71.6,66.5,30.07,South,179,6.0,12.0,84,0.06,,---,0.06,VWS V14.01,2013-05-26 15:45:00,
2013-05-26 10:50:00,71.9,66.8,30.07,SSE,155,3.0,13.0,84,0.06,,---,0.06,VWS V14.01,2013-05-26 15:50:00,
2013-05-26 10:55:00,72.2,66.8,30.07,SSE,154,2.0,13.0,83,0.06,,---,0.06,VWS V14.01,2013-05-26 15:55:00,
2013-05-26 11:00:00,72.6,67.8,30.07,SE,143,2.0,13.0,85,0.06,,---,0.06,VWS V14.01,2013-05-26 16:00:00,
2013-05-26 11:05:00,72.9,68.1,30.07,SE,145,1.0,5.0,85,0.04,,---,0.06,VWS V14.01,2013-05-26 16:05:00,
2013-05-26 11:10:00,73.0,68.2,30.07,SSE,158,3.0,5.0,85,0.04,,---,0.06,VWS V14.01,2013-05-26 16:10:00,
2013-05-26 11:15:00,73.1,68.3,30.07,SSE,153,2.0,5.0,85,0.04,,---,0.06,VWS V14.01,2013-05-26 16:15:00,
2013-05-26 11:20:00,73.2,68.8,30.07,SSW,194,1.0,5.0,86,0.04,,---,0.06,VWS V14.01,2013-05-26 16:20:00,
2013-05-26 11:25:00,73.2,68.4,30.07,SSE,159,2.0,5.0,85,0.04,,---,0.06,VWS V14.01,2013-05-26 16:25:00,
2013-05-26 11:30:00,73.3,68.5,30.07,ESE,115,0.0,5.0,85,0.04,,---,0.06,VWS V14.01,2013-05-26 16:30:00,
2013-05-26 11:35:00,73.7,68.2,30.07,SE,131,4.0,5.0,83,0.00,,---,0.06,VWS V14.01,2013-05-26 16:35:00,
2013-05-26 11:40:00,74.2,68.7,30.07,SE,138,5.0,5.0,83,0.00,,---,0.06,VWS V14.01,2013-05-26 16:40:00,
2013-05-26 11:45:00,74.3,69.2,30.07,ESE,115,4.0,7.0,84,0.00,,---,0.06,VWS V14.01,2013-05-26 16:45:00,
2013-05-26 11:50:00,74.2,69.4,30.07,East,88,2.0,7.0,85,0.00,,---,0.06,VWS V14.01,2013-05-26 16:50:00,
2013-05-26 11:55:00,74.4,69.9,30.07,East,97,0.0,7.0,86,0.00,,---,0.06,VWS V14.01,2013-05-26 16:55:00,
2013-05-26 12:00:00,74.6,70.1,30.07,East,82,4.0,7.0,86,0.00,,---,0.06,VWS V14.01,2013-05-26 17:00:00,
2013-05-26 12:05:00,74.9,70.4,30.07,East,83,4.0,4.0,86,0.00,,---,0.06,VWS V14.01,2013-05-26 17:05:00,
2013-05-26 12:10:00,75.3,70.5,30.07,East,83,1.0,4.0,85,0.00,,---,0.06,VWS V14.01,2013-05-26 17:10:00,
2013-05-26 12:15:00,75.8,71.0,30.07,NE,44,4.0,4.0,85,0.00,,---,0.06,VWS V14.01,2013-05-26 17:15:00,
2013-05-26 12:20:00,76.0,70.8,30.06,ESE,105,4.0,5.0,84,0.00,,---,0.06,VWS V14.01,2013-05-26 17:20:00,
2013-05-26 12:25:00,76.2,71.0,30.06,West,276,3.0,6.0,84,0.00,,---,0.06,VWS V14.01,2013-05-26 17:25:00,
2013-05-26 12:30:00,76.6,71.4,30.06,NE,34,1.0,6.0,84,0.00,,---,0.06,VWS V14.01,2013-05-26 17:30:00,
2013-05-26 12:35:00,77.0,71.4,30.06,South,177,1.0,6.0,83,0.00,,---,0.06,VWS V14.01,2013-05-26 17:35:00,
2013-05-26 12:40:00,77.1,70.8,30.06,East,81,6.0,9.0,81,0.00,,---,0.06,VWS V14.01,2013-05-26 17:40:00,
2013-05-26 12:45:00,77.3,71.4,30.06,ESE,110,4.0,9.0,82,0.00,,---,0.06,VWS V14.01,2013-05-26 17:45:00,
2013-05-26 12:50:00,78.0,72.1,30.06,ENE,68,2.0,9.0,82,0.00,,---,0.06,VWS V14.01,2013-05-26 17:50:00,
2013-05-26 12:55:00,78.7,71.3,30.06,East,100,5.0,9.0,78,0.00,,---,0.06,VWS V14.01,2013-05-26 17:55:00,
2013-05-26 13:00:00,79.4,71.6,30.06,ESE,115,3.0,9.0,77,0.00,,---,0.06,VWS V14.01,2013-05-26 18:00:00,
2013-05-26 13:05:00,79.9,71.3,30.06,East,79,4.0,5.0,75,0.00,,---,0.06,VWS V14.01,2013-05-26 18:05:00,
2013-05-26 13:10:00,79.7,71.1,30.06,WSW,256,3.0,9.0,75,0.00,,---,0.06,VWS V14.01,2013-05-26 18:10:00,
2013-05-26 13:15:00,79.8,70.8,30.05,North,5,2.0,9.0,74,0.00,,---,0.06,VWS V14.01,2013-05-26 18:15:00,
2013-05-26 13:20:00,80.0,71.4,30.05,East,96,2.0,9.0,75,0.00,,---,0.06,VWS V14.01,2013-05-26 18:20:00,
2013-05-26 13:25:00,79.8,71.9,30.05,ESE,107,4.0,10.0,77,0.00,,---,0.06,VWS V14.01,2013-05-26 18:25:00,
2013-05-26 13:30:00,80.4,72.2,30.05,NNE,28,4.0,10.0,76,0.00,,---,0.06,VWS V14.01,2013-05-26 18:30:00,
2013-05-26 13:35:00,81.2,72.9,30.05,NNE,30,4.0,6.0,76,0.00,,---,0.06,VWS V14.01,2013-05-26 18:35:00,
2013-05-26 13:40:00,81.7,71.4,30.05,West,270,2.0,8.0,71,0.00,,---,0.06,VWS V14.01,2013-05-26 18:40:00,
2013-05-26 13:45:00,81.8,71.1,30.04,ENE,65,5.0,8.0,70,0.00,,---,0.06,VWS V14.01,2013-05-26 18:45:00,
2013-05-26 13:50:00,81.6,70.9,30.04,East,99,4.0,11.0,70,0.00,,---,0.06,VWS V14.01,2013-05-26 18:50:00,
2013-05-26 13:55:00,81.0,70.7,30.04,ENE,60,4.0,11.0,71,0.00,,---,0.06,VWS V14.01,2013-05-26 18:55:00,
2013-05-26 14:00:00,80.1,70.3,30.03,ESE,104,9.0,11.0,72,0.00,,---,0.06,VWS V14.01,2013-05-26 19:00:00,
2013-05-26 14:05:00,79.7,70.3,30.03,ENE,66,6.0,11.0,73,0.00,,---,0.06,VWS V14.01,2013-05-26 19:05:00,
2013-05-26 14:10:00,80.4,70.6,30.03,NW,325,3.0,11.0,72,0.00,,---,0.06,VWS V14.01,2013-05-26 19:10:00,
2013-05-26 14:15:00,80.3,70.5,30.03,West,274,2.0,11.0,72,0.00,,---,0.06,VWS V14.01,2013-05-26 19:15:00,
2013-05-26 14:20:00,80.3,70.9,30.03,ESE,107,3.0,11.0,73,0.00,,---,0.06,VWS V14.01,2013-05-26 19:20:00,
2013-05-26 14:25:00,80.8,70.9,30.03,East,89,3.0,11.0,72,0.00,,---,0.06,VWS V14.01,2013-05-26 19:25:00,
2013-05-26 14:30:00,81.6,71.7,30.02,NNW,330,5.0,11.0,72,0.00,,---,0.06,VWS V14.01,2013-05-26 19:30:00,
2013-05-26 14:35:00,82.0,71.7,30.02,North,354,6.0,11.0,71,0.00,,---,0.06,VWS V14.01,2013-05-26 19:35:00,
2013-05-26 14:40:00,82.2,71.9,30.02,NE,42,7.0,11.0,71,0.00,,---,0.06,VWS V14.01,2013-05-26 19:40:00,
2013-05-26 14:45:00,82.6,72.7,30.02,South,176,2.0,11.0,72,0.00,,---,0.06,VWS V14.01,2013-05-26 19:45:00,
2013-05-26 14:50:00,82.6,72.2,30.02,East,79,8.0,11.0,71,0.00,,---,0.06,VWS V14.01,2013-05-26 19:50:00,
2013-05-26 14:55:00,82.3,72.0,30.02,NNE,18,4.0,11.0,71,0.00,,---,0.06,VWS V14.01,2013-05-26 19:55:00,
2013-05-26 15:00:00,81.7,72.2,30.02,ENE,57,8.0,11.0,73,0.00,,---,0.06,VWS V14.01,2013-05-26 20:00:00,
2013-05-26 15:05:00,81.4,72.3,30.02,East,91,7.0,9.0,74,0.00,,---,0.06,VWS V14.01,2013-05-26 20:05:00,
2013-05-26 15:10:00,81.0,72.3,30.01,NE,56,2.0,10.0,75,0.00,,---,0.06,VWS V14.01,2013-05-26 20:10:00,
2013-05-26 15:15:00,81.4,72.7,30.01,East,98,5.0,10.0,75,0.00,,---,0.06,VWS V14.01,2013-05-26 20:15:00,
2013-05-26 15:20:00,81.3,72.2,30.01,East,98,6.0,10.0,74,0.00,,---,0.06,VWS V14.01,2013-05-26 20:20:00,
2013-05-26 15:25:00,81.2,72.9,30.01,ESE,114,9.0,10.0,76,0.00,,---,0.06,VWS V14.01,2013-05-26 20:25:00,
2013-05-26 15:30:00,81.2,73.3,30.00,NE,44,1.0,10.0,77,0.00,,---,0.06,VWS V14.01,2013-05-26 20:30:00,
2013-05-26 15:35:00,82.0,73.3,30.00,ENE,58,5.0,9.0,75,0.00,,---,0.06,VWS V14.01,2013-05-26 20:35:00,
2013-05-26 15:40:00,82.4,73.3,30.00,NNW,344,1.0,9.0,74,0.00,,---,0.06,VWS V14.01,2013-05-26 20:40:00,
2013-05-26 15:45:00,82.3,73.6,30.00,ENE,68,4.0,9.0,75,0.00,,---,0.06,VWS V14.01,2013-05-26 20:45:00,
2013-05-26 15:50:00,82.2,73.5,29.99,East,93,7.0,10.0,75,0.00,,---,0.06,VWS V14.01,2013-05-26 20:50:00,
2013-05-26 15:55:00,82.3,72.8,29.99,ESE,105,9.0,13.0,73,0.00,,---,0.06,VWS V14.01,2013-05-26 20:55:00,
2013-05-26 16:00:00,82.0,73.3,29.98,East,88,7.0,13.0,75,0.00,,---,0.06,VWS V14.01,2013-05-26 21:00:00,
2013-05-26 16:05:00,81.3,73.0,29.98,East,91,7.0,12.0,76,0.00,,---,0.06,VWS V14.01,2013-05-26 21:05:00,
2013-05-26 16:10:00,80.8,72.9,29.98,ESE,104,9.0,13.0,77,0.00,,---,0.06,VWS V14.01,2013-05-26 21:10:00,
2013-05-26 16:15:00,81.2,73.3,29.98,SE,136,4.0,13.0,77,0.00,,---,0.06,VWS V14.01,2013-05-26 21:15:00,
2013-05-26 16:20:00,80.9,73.4,29.98,East,82,7.0,13.0,78,0.00,,---,0.06,VWS V14.01,2013-05-26 21:20:00,
2013-05-26 16:25:00,80.3,72.8,29.98,ESE,121,5.0,16.0,78,0.00,,---,0.06,VWS V14.01,2013-05-26 21:25:00,
2013-05-26 16:30:00,79.8,73.1,29.98,East,98,16.0,16.0,80,0.00,,---,0.06,VWS V14.01,2013-05-26 21:30:00,
2013-05-26 16:35:00,79.0,73.4,29.97,ESE,102,6.0,16.0,83,0.03,,---,0.09,VWS V14.01,2013-05-26 21:35:00,
2013-05-26 16:40:00,78.2,73.3,29.97,East,85,2.0,16.0,85,0.04,,---,0.10,VWS V14.01,2013-05-26 21:40:00,
2013-05-26 16:45:00,77.9,73.4,29.97,ENE,59,4.0,16.0,86,0.05,,---,0.11,VWS V14.01,2013-05-26 21:45:00,
2013-05-26 16:50:00,77.6,73.4,29.97,ESE,107,4.0,16.0,87,0.07,,---,0.13,VWS V14.01,2013-05-26 21:50:00,
2013-05-26 16:55:00,77.3,73.1,29.97,North,11,4.0,16.0,87,0.07,,---,0.13,VWS V14.01,2013-05-26 21:55:00,
2013-05-26 17:00:00,77.3,73.5,29.97,ESE,112,8.0,16.0,88,0.07,,---,0.13,VWS V14.01,2013-05-26 22:00:00,
2013-05-26 17:05:00,77.3,73.5,29.97,ESE,117,3.0,8.0,88,0.07,,---,0.13,VWS V14.01,2013-05-26 22:05:00,
2013-05-26 17:10:00,77.4,73.6,29.97,SSE,160,2.0,8.0,88,0.07,,---,0.13,VWS V14.01,2013-05-26 22:10:00,
2013-05-26 17:15:00,77.5,73.7,29.97,ENE,58,2.0,8.0,88,0.07,,---,0.13,VWS V14.01,2013-05-26 22:15:00,
2013-05-26 17:20:00,77.6,73.8,29.97,East,95,2.0,8.0,88,0.07,,---,0.13,VWS V14.01,2013-05-26 22:20:00,
2013-05-26 17:25:00,77.6,73.8,29.97,NNW,335,0.0,8.0,88,0.09,,---,0.15,VWS V14.01,2013-05-26 22:25:00,
2013-05-26 17:30:00,77.7,73.9,29.96,SSE,163,1.0,8.0,88,0.09,,---,0.15,VWS V14.01,2013-05-26 22:30:00,
2013-05-26 17:35:00,78.1,74.6,29.96,SE,131,2.0,5.0,89,0.09,,---,0.15,VWS V14.01,2013-05-26 22:35:00,
2013-05-26 17:40:00,78.7,74.8,29.96,East,80,2.0,5.0,88,0.09,,---,0.15,VWS V14.01,2013-05-26 22:40:00,
2013-05-26 17:45:00,79.1,74.9,29.95,ENE,75,1.0,5.0,87,0.09,,---,0.15,VWS V14.01,2013-05-26 22:45:00,
2013-05-26 17:50:00,79.6,75.1,29.95,ENE,75,3.0,5.0,86,0.09,,---,0.15,VWS V14.01,2013-05-26 22:50:00,
2013-05-26 17:55:00,79.9,74.6,29.95,East,98,4.0,6.0,84,0.09,,---,0.15,VWS V14.01,2013-05-26 22:55:00,
2013-05-26 18:00:00,80.1,74.1,29.95,WNW,295,2.0,8.0,82,0.09,,---,0.15,VWS V14.01,2013-05-26 23:00:00,
2013-05-26 18:05:00,80.3,74.3,29.94,East,92,4.0,7.0,82,0.02,,---,0.15,VWS V14.01,2013-05-26 23:05:00,
2013-05-26 18:10:00,80.2,74.6,29.94,East,91,3.0,8.0,83,0.02,,---,0.15,VWS V14.01,2013-05-26 23:10:00,
2013-05-26 18:15:00,80.3,73.6,29.94,ESE,111,6.0,11.0,80,0.02,,---,0.15,VWS V14.01,2013-05-26 23:15:00,
2013-05-26 18:20:00,80.5,73.8,29.94,ESE,105,8.0,11.0,80,0.02,,---,0.15,VWS V14.01,2013-05-26 23:20:00,
2013-05-26 18:25:00,80.6,73.1,29.94,ESE,112,10.0,13.0,78,0.02,,---,0.15,VWS V14.01,2013-05-26 23:25:00,
2013-05-26 18:30:00,80.7,73.6,29.93,East,87,11.0,13.0,79,0.02,,---,0.15,VWS V14.01,2013-05-26 23:30:00,
2013-05-26 18:35:00,80.7,72.8,29.93,East,84,11.0,12.0,77,0.00,,---,0.15,VWS V14.01,2013-05-26 23:35:00,
2013-05-26 18:40:00,80.6,73.1,29.93,ESE,105,8.0,14.0,78,0.00,,---,0.15,VWS V14.01,2013-05-26 23:40:00,
2013-05-26 18:45:00,80.6,72.7,29.93,ESE,109,7.0,15.0,77,0.00,,---,0.15,VWS V14.01,2013-05-26 23:45:00,
2013-05-26 18:50:00,80.5,72.6,29.93,East,99,9.0,15.0,77,0.00,,---,0.15,VWS V14.01,2013-05-26 23:50:00,
2013-05-26 18:55:00,80.3,72.4,29.93,SE,132,7.0,15.0,77,0.00,,---,0.15,VWS V14.01,2013-05-26 23:55:00,
2013-05-26 19:00:00,80.2,72.7,29.93,ENE,74,9.0,15.0,78,0.00,,---,0.15,VWS V14.01,2013-05-27 00:00:00,
2013-05-26 19:05:00,80.0,72.5,29.93,ESE,117,11.0,11.0,78,0.00,,---,0.15,VWS V14.01,2013-05-27 00:05:00,
2013-05-26 19:10:00,79.8,71.9,29.93,SSE,156,7.0,12.0,77,0.00,,---,0.15,VWS V14.01,2013-05-27 00:10:00,
2013-05-26 19:15:00,79.7,71.9,29.93,East,100,9.0,12.0,77,0.00,,---,0.15,VWS V14.01,2013-05-27 00:15:00,
2013-05-26 19:20:00,79.7,72.2,29.93,ESE,110,9.0,12.0,78,0.00,,---,0.15,VWS V14.01,2013-05-27 00:20:00,
2013-05-26 19:25:00,79.6,72.1,29.93,East,80,12.0,12.0,78,0.00,,---,0.15,VWS V14.01,2013-05-27 00:25:00,
2013-05-26 19:30:00,79.5,72.4,29.93,ESE,115,10.0,12.0,79,0.00,,---,0.15,VWS V14.01,2013-05-27 00:30:00,
2013-05-26 19:35:00,79.5,72.0,29.93,ESE,109,7.0,14.0,78,0.00,,---,0.15,VWS V14.01,2013-05-27 00:35:00,
2013-05-26 19:40:00,79.4,71.9,29.93,SE,141,8.0,14.0,78,0.00,,---,0.15,VWS V14.01,2013-05-27 00:40:00,
2013-05-26 19:45:00,79.4,71.9,29.93,East,82,8.0,14.0,78,0.00,,---,0.15,VWS V14.01,2013-05-27 00:45:00,
2013-05-26 19:50:00,79.4,72.3,29.93,ENE,75,8.0,14.0,79,0.00,,---,0.15,VWS V14.01,2013-05-27 00:50:00,
2013-05-26 19:55:00,79.3,71.8,29.93,East,97,9.0,14.0,78,0.00,,---,0.15,VWS V14.01,2013-05-27 00:55:00,
2013-05-26 20:00:00,79.2,71.8,29.93,ESE,107,9.0,15.0,78,0.00,,---,0.15,VWS V14.01,2013-05-27 01:00:00,
2013-05-26 20:05:00,79.1,71.7,29.94,SSE,162,5.0,12.0,78,0.00,,---,0.15,VWS V14.01,2013-05-27 01:05:00,
2013-05-26 20:10:00,79.1,71.7,29.93,ESE,112,8.0,13.0,78,0.00,,---,0.15,VWS V14.01,2013-05-27 01:10:00,
2013-05-26 20:15:00,79.0,71.9,29.93,East,96,8.0,13.0,79,0.00,,---,0.15,VWS V14.01,2013-05-27 01:15:00,
2013-05-26 20:20:00,78.8,71.7,29.94,ESE,114,9.0,13.0,79,0.00,,---,0.15,VWS V14.01,2013-05-27 01:20:00,
2013-05-26 20:25:00,78.7,71.6,29.94,SE,124,9.0,13.0,79,0.00,,---,0.15,VWS V14.01,2013-05-27 01:25:00,
2013-05-26 20:30:00,78.7,71.6,29.94,ESE,121,7.0,13.0,79,0.00,,---,0.15,VWS V14.01,2013-05-27 01:30:00,
2013-05-26 20:35:00,78.6,71.6,29.93,NE,49,6.0,11.0,79,0.00,,---,0.15,VWS V14.01,2013-05-27 01:35:00,
2013-05-26 20:40:00,78.5,72.2,29.94,ESE,104,7.0,11.0,81,0.00,,---,0.15,VWS V14.01,2013-05-27 01:40:00,
2013-05-26 20:45:00,78.3,71.6,29.94,East,88,6.0,11.0,80,0.00,,---,0.15,VWS V14.01,2013-05-27 01:45:00,
2013-05-26 20:50:00,78.3,72.0,29.94,ESE,117,6.0,11.0,81,0.00,,---,0.15,VWS V14.01,2013-05-27 01:50:00,
2013-05-26 20:55:00,78.2,71.9,29.94,ESE,108,9.0,11.0,81,0.00,,---,0.15,VWS V14.01,2013-05-27 01:55:00,
2013-05-26 21:00:00,78.1,71.8,29.94,ESE,118,8.0,11.0,81,0.00,,---,0.15,VWS V14.01,2013-05-27 02:00:00,
2013-05-26 21:05:00,78.1,71.8,29.94,SE,124,7.0,11.0,81,0.00,,---,0.15,VWS V14.01,2013-05-27 02:05:00,
2013-05-26 21:10:00,78.0,71.7,29.95,East,96,8.0,11.0,81,0.00,,---,0.15,VWS V14.01,2013-05-27 02:10:00,
2013-05-26 21:15:00,77.9,71.6,29.94,East,101,6.0,11.0,81,0.00,,---,0.15,VWS V14.01,2013-05-27 02:15:00,
2013-05-26 21:20:00,77.9,71.6,29.95,SE,134,5.0,11.0,81,0.00,,---,0.15,VWS V14.01,2013-05-27 02:20:00,
2013-05-26 21:25:00,77.8,71.9,29.95,SSE,157,5.0,11.0,82,0.00,,---,0.15,VWS V14.01,2013-05-27 02:25:00,
2013-05-26 21:30:00,77.7,71.8,29.95,SE,138,4.0,11.0,82,0.00,,---,0.15,VWS V14.01,2013-05-27 02:30:00,
2013-05-26 21:35:00,77.7,71.8,29.95,ESE,107,5.0,8.0,82,0.00,,---,0.15,VWS V14.01,2013-05-27 02:35:00,
2013-05-26 21:40:00,77.7,71.8,29.95,SE,143,6.0,9.0,82,0.00,,---,0.15,VWS V14.01,2013-05-27 02:40:00,
2013-05-26 21:45:00,77.7,71.8,29.95,SE,129,7.0,9.0,82,0.00,,---,0.15,VWS V14.01,2013-05-27 02:45:00,
2013-05-26 21:50:00,77.7,71.8,29.96,SSE,150,5.0,9.0,82,0.00,,---,0.15,VWS V14.01,2013-05-27 02:50:00,
2013-05-26 21:55:00,77.7,71.4,29.96,ESE,115,4.0,9.0,81,0.00,,---,0.15,VWS V14.01,2013-05-27 02:55:00,
2013-05-26 22:00:00,77.7,71.8,29.96,ESE,113,8.0,9.0,82,0.00,,---,0.15,VWS V14.01,2013-05-27 03:00:00,
2013-05-26 22:05:00,77.7,71.4,29.96,ESE,104,6.0,8.0,81,0.00,,---,0.15,VWS V14.01,2013-05-27 03:05:00,
2013-05-26 22:10:00,77.6,71.7,29.97,NE,52,6.0,8.0,82,0.00,,---,0.15,VWS V14.01,2013-05-27 03:10:00,
2013-05-26 22:15:00,77.6,71.3,29.97,SE,129,5.0,8.0,81,0.00,,---,0.15,VWS V14.01,2013-05-27 03:15:00,
2013-05-26 22:20:00,77.5,71.6,29.97,ESE,115,5.0,8.0,82,0.00,,---,0.15,VWS V14.01,2013-05-27 03:20:00,
2013-05-26 22:25:00,77.4,71.8,29.98,SE,146,5.0,8.0,83,0.00,,---,0.15,VWS V14.01,2013-05-27 03:25:00,
2013-05-26 22:30:00,77.3,71.7,29.97,SE,143,5.0,8.0,83,0.00,,---,0.15,VWS V14.01,2013-05-27 03:30:00,
2013-05-26 22:35:00,77.2,71.6,29.97,SE,141,3.0,7.0,83,0.00,,---,0.15,VWS V14.01,2013-05-27 03:35:00,
2013-05-26 22:40:00,77.1,71.5,29.97,ESE,115,5.0,7.0,83,0.00,,---,0.15,VWS V14.01,2013-05-27 03:40:00,
2013-05-26 22:45:00,76.9,71.7,29.98,ESE,105,4.0,8.0,84,0.00,,---,0.15,VWS V14.01,2013-05-27 03:45:00,
2013-05-26 22:50:00,76.8,71.6,29.98,SSE,159,5.0,8.0,84,0.00,,---,0.15,VWS V14.01,2013-05-27 03:50:00,
2013-05-26 22:55:00,76.7,71.5,29.98,ESE,118,5.0,8.0,84,0.00,,---,0.15,VWS V14.01,2013-05-27 03:55:00,
2013-05-26 23:00:00,76.6,71.4,29.98,ESE,117,6.0,8.0,84,0.00,,---,0.15,VWS V14.01,2013-05-27 04:00:00,
2013-05-26 23:01:00,76.6,71.4,29.98,SE,132,5.0,6.0,84,0.00,,---,0.15,VWS V14.01,2013-05-27 04:01:00,
2013-05-26 23:06:00,76.5,71.7,29.98,ESE,103,4.0,8.0,85,0.00,,---,0.15,VWS V14.01,2013-05-27 04:06:00,
2013-05-26 23:11:00,76.4,71.2,29.98,SE,143,4.0,10.0,84,0.00,,---,0.15,VWS V14.01,2013-05-27 04:11:00,
2013-05-26 23:16:00,76.3,71.5,29.98,ESE,102,8.0,10.0,85,0.00,,---,0.15,VWS V14.01,2013-05-27 04:16:00,
2013-05-26 23:21:00,76.2,71.4,29.98,ESE,102,4.0,10.0,85,0.00,,---,0.15,VWS V14.01,2013-05-27 04:21:00,
2013-05-26 23:26:00,76.2,71.4,29.98,ESE,103,4.0,10.0,85,0.00,,---,0.15,VWS V14.01,2013-05-27 04:26:00,
2013-05-26 23:31:00,76.1,71.6,29.98,SE,128,8.0,9.0,86,0.00,,---,0.15,VWS V14.01,2013-05-27 04:31:00,
2013-05-26 23:36:00,76.1,71.6,29.98,East,80,4.0,10.0,86,0.00,,---,0.15,VWS V14.01,2013-05-27 04:36:00,
2013-05-26 23:41:00,76.0,71.5,29.98,East,96,5.0,10.0,86,0.00,,---,0.15,VWS V14.01,2013-05-27 04:41:00,
2013-05-26 23:46:00,75.9,71.4,29.98,East,98,6.0,10.0,86,0.00,,---,0.15,VWS V14.01,2013-05-27 04:46:00,
2013-05-26 23:51:00,75.8,71.3,29.98,ESE,111,5.0,10.0,86,0.00,,---,0.15,VWS V14.01,2013-05-27 04:51:00,
2013-05-26 23:56:00,75.7,71.2,29.98,ESE,108,6.0,10.0,86,0.00,,---,0.15,VWS V14.01,2013-05-27 04:56:00,